Location: Krasnoyarskiy Pitomnik
(51.1333°N, 71.6167°E)
Time: 14:13:54
(UTC+00:00)

ATLAS CENTAUR R/B - Pass Details

Date: 22 October 2021
Orbit: 459 x 682 km, 64.7° (Epoch: 25 November)

Event Time Altitude Azimuth Distance (km) Brightness Sun altitude
Exits shadow 23:04:54 38° 16° (NNE) 896 2.5 -26.4°
Drops below altitude 10° 23:07:51 10° 37° (NE) 1,945 4.7 -26.0°
Sets 23:10:15 0° 41° (NE) 2,892 5.8 -25.6°
